Regional Weather Roundup
Issued by NWS

Home | Current Version | Previous Version | Text Only | Print | Product List | Glossary On
Versions: 1 2 3 4 5 6 7 8 9 10 11 12 13 14 15 16 17 18 19 20 21 22 23 24 25 26 27 28 29 30 31 32 33 34 35 36 37 38 39 40 41 42 43 44 45 46 47 48 49 50
097
ASUS44 KBMX 080810
RWRAL

ALABAMA REGIONAL WEATHER ROUNDUP
NATIONAL WEATHER SERVICE BIRMINGHAM AL
200 AM CST MON FEB 08 2016

NOTE: "FAIR" INDICATES FEW OR NO CLOUDS BELOW 12,000 FEET
WITH NO SIGNIFICANT WEATHER AND/OR OBSTRUCTIONS TO VISIBILITY.

THE REMARK "TC" DENOTES TEMPERATURE IN DEGREES CELSIUS.

ALZ001>011-014-016>018-020-080900-
NORTH ALABAMA

CITY           SKY/WX    TMP DP  RH WIND       PRES   REMARKS
MUSCLE SHOALS  CLOUDY    47  30  51 W14       29.90F
HUNTSVILLE     CLOUDY    45  29  53 SW9       29.88F
DECATUR        PTCLDY    45  30  55 SW8       29.89F
HALEYVILLE     FAIR      42  29  59 W6        29.92F
GADSDEN        CLEAR     42  26  53 SW3       29.92F
$$

ALZ012-013-022-023-030>036-040>044-080900-
WEST CENTRAL ALABAMA

CITY           SKY/WX    TMP DP  RH WIND       PRES   REMARKS
TUSCALOOSA     CLEAR     34  28  79 CALM      29.97F
$$

ALZ015-024>027-033>036-040>044-080900-
CENTRAL ALABAMA

CITY           SKY/WX    TMP DP  RH WIND       PRES   REMARKS
BIRMINGHAM     CLEAR     44  27  51 SW7       29.95F
MONTGOMERY     PTCLDY    41  25  53 SW7       30.01F
SHELBY CO ARPT CLEAR     40  24  53 SW3       29.96F
MAXWELL AFB    PTCLDY    34  30  83 CALM      29.98F
GREENVILLE     NOT AVBL
$$

ALZ019-021-028-029-037-038-045>048-080900-
EAST CENTRAL ALABAMA

CITY           SKY/WX    TMP DP  RH WIND       PRES   REMARKS
ANNISTON       CLEAR     33  26  75 W5        29.95F WCI  29
ALEXANDER CITY CLEAR     31  30  95 CALM      29.96F
AUBURN         CLEAR     40  25  55 SW5       29.98F
$$

ALZ051>064-080900-
SOUTHWEST ALABAMA

CITY           SKY/WX    TMP DP  RH WIND       PRES   REMARKS
MOBILE         CLEAR     42  35  76 CALM      30.08F
BROOKLEY FIELD CLEAR     46  36  68 W8        30.09F
EVERGREEN      CLEAR     40  30  67 SW3       30.04F
$$

ALZ049-050-065>069-080900-
SOUTHEAST ALABAMA

CITY           SKY/WX    TMP DP  RH WIND       PRES   REMARKS
DOTHAN         CLEAR     39  28  64 SW5       30.06F
OZARK          PTCLDY    38  29  71 W3        30.03F
TROY           PTCLDY    37  28  70 S5        30.02F WCI  33
EUFAULA        FAIR      32  29  88 SW5       29.99F WCI  27
$$




USA.gov is the U.S. government's official web portal to all federal, state and local government web resources and services.